Total_Precipitation_Accumulation
0.39 0.40 0.53 0.56 0.48 0.49 0.58 0.68 0.85 0.79 0.74 0.61 0.59 0.64 0.67 0.65 0.61 0.58 0.50 0.43 0.45 0.47 0.53 0.56 0.60 0.64 0.67 0.64 0.69 0.78 0.92 1.06 1.12 1.19 1.25 1.18 1.08 1.02 1.08 1.06 1.05 1.18 1.33 1.46
0.30 0.28 0.38 0.44 0.43 0.44 0.45 0.49 0.60 0.65 0.63 0.51 0.47 0.47 0.49 0.47 0.41 0.43 0.44 0.38 0.36 0.39 0.43 0.44 0.47 0.49 0.50 0.58 0.75 0.78 0.84 0.94 1.14 1.22 1.15 1.09 0.99 0.97 0.98 0.96 0.95 1.04 1.17 1.36
0.45 0.34 0.40 0.63 0.58 0.59 0.61 0.55 0.56 0.50 0.40 0.27 0.27 0.29 0.34 0.35 0.34 0.38 0.37 0.33 0.30 0.32 0.34 0.35 0.39 0.47 0.51 0.59 0.71 0.75 0.79 0.93 1.13 1.16 1.07 1.00 1.04 1.05 0.99 0.96 0.98 1.04 1.08 1.09
0.56 0.55 0.86 0.95 0.66 0.64 0.62 0.42 0.28 0.22 0.19 0.17 0.23 0.22 0.21 0.23 0.26 0.30 0.29 0.26 0.26 0.27 0.28 0.30 0.33 0.40 0.46 0.52 0.57 0.62 0.69 0.81 0.98 1.03 1.01 1.04 1.03 1.01 0.93 0.87 0.87 0.91 0.93 0.97
0.68 0.68 0.82 0.73 0.48 0.41 0.44 0.33 0.16 0.14 0.15 0.15 0.18 0.17 0.14 0.15 0.16 0.17 0.19 0.16 0.17 0.19 0.23 0.25 0.23 0.27 0.33 0.37 0.41 0.47 0.56 0.68 0.78 0.81 0.87 0.90 0.88 0.90 0.86 0.77 0.77 0.79 0.83 0.90
0.82 0.93 0.88 0.48 0.29 0.26 0.36 0.47 0.19 0.14 0.14 0.12 0.13 0.17 0.12 0.09 0.10 0.11 0.11 0.10 0.09 0.12 0.17 0.22 0.20 0.21 0.24 0.31 0.35 0.38 0.48 0.60 0.68 0.69 0.72 0.75 0.81 0.84 0.85 0.79 0.76 0.76 0.80 0.81
0.79 1.00 0.80 0.40 0.28 0.29 0.50 0.58 0.28 0.19 0.16 0.12 0.11 0.12 0.10 0.09 0.08 0.09 0.08 0.08 0.09 0.10 0.15 0.20 0.21 0.20 0.19 0.25 0.28 0.32 0.38 0.49 0.56 0.59 0.66 0.76 0.84 0.86 0.90 0.87 0.82 0.81 0.85 0.86
0.73 0.93 0.85 0.42 0.37 0.46 0.49 0.37 0.28 0.23 0.19 0.14 0.10 0.08 0.07 0.07 0.07 0.08 0.08 0.08 0.08 0.10 0.16 0.19 0.20 0.19 0.18 0.21 0.25 0.28 0.29 0.36 0.49 0.57 0.65 0.73 0.85 0.89 0.88 0.89 0.90 0.92 0.90 0.92
0.80 0.91 0.63 0.43 0.46 0.44 0.38 0.35 0.25 0.18 0.16 0.14 0.11 0.08 0.06 0.06 0.07 0.08 0.09 0.09 0.09 0.12 0.17 0.15 0.16 0.18 0.19 0.22 0.23 0.22 0.23 0.28 0.36 0.42 0.47 0.57 0.67 0.78 0.84 0.84 0.85 0.86 0.92 1.00
0.66 0.58 0.38 0.35 0.37 0.33 0.30 0.27 0.20 0.17 0.14 0.12 0.11 0.09 0.07 0.06 0.07 0.08 0.09 0.09 0.10 0.13 0.16 0.15 0.15 0.16 0.18 0.20 0.20 0.22 0.24 0.27 0.29 0.32 0.34 0.40 0.55 0.62 0.68 0.73 0.78 0.85 0.92 1.04
0.63 0.57 0.41 0.33 0.32 0.29 0.27 0.20 0.17 0.19 0.19 0.16 0.14 0.11 0.09 0.07 0.07 0.07 0.08 0.08 0.10 0.13 0.15 0.16 0.14 0.15 0.18 0.19 0.20 0.22 0.24 0.26 0.27 0.29 0.32 0.36 0.44 0.57 0.65 0.70 0.76 0.82 0.89 1.03
0.67 0.58 0.53 0.38 0.30 0.25 0.22 0.19 0.16 0.17 0.18 0.20 0.21 0.19 0.13 0.09 0.08 0.08 0.10 0.10 0.12 0.13 0.14 0.16 0.16 0.14 0.17 0.19 0.20 0.26 0.29 0.27 0.28 0.30 0.34 0.37 0.42 0.51 0.58 0.60 0.62 0.66 0.71 0.77
0.44 0.41 0.37 0.29 0.23 0.20 0.19 0.16 0.13 0.13 0.13 0.14 0.17 0.22 0.21 0.17 0.13 0.11 0.12 0.13 0.15 0.17 0.17 0.16 0.15 0.16 0.19 0.21 0.26 0.35 0.39 0.36 0.34 0.34 0.38 0.43 0.44 0.46 0.53 0.55 0.58 0.61 0.63 0.68
0.30 0.29 0.30 0.26 0.21 0.18 0.17 0.14 0.12 0.13 0.15 0.15 0.15 0.18 0.20 0.21 0.19 0.17 0.16 0.17 0.19 0.19 0.19 0.17 0.16 0.18 0.22 0.24 0.26 0.28 0.31 0.33 0.36 0.39 0.38 0.42 0.48 0.55 0.61 0.67 0.63 0.57 0.57 0.63
0.26 0.26 0.27 0.23 0.19 0.17 0.19 0.20 0.19 0.18 0.16 0.14 0.14 0.17 0.19 0.18 0.17 0.17 0.17 0.17 0.17 0.18 0.18 0.17 0.17 0.18 0.22 0.23 0.23 0.25 0.28 0.33 0.41 0.45 0.43 0.43 0.52 0.63 0.68 0.71 0.68 0.60 0.52 0.51
0.24 0.22 0.21 0.22 0.19 0.15 0.17 0.20 0.22 0.21 0.18 0.16 0.16 0.16 0.17 0.18 0.20 0.21 0.21 0.20 0.19 0.19 0.19 0.18 0.18 0.19 0.20 0.22 0.25 0.28 0.33 0.40 0.48 0.53 0.48 0.49 0.54 0.55 0.55 0.59 0.59 0.55 0.53 0.56
0.25 0.27 0.28 0.26 0.23 0.18 0.16 0.18 0.21 0.22 0.20 0.18 0.18 0.20 0.21 0.23 0.25 0.24 0.24 0.25 0.25 0.25 0.25 0.25 0.23 0.23 0.25 0.27 0.29 0.35 0.42 0.42 0.44 0.50 0.51 0.49 0.50 0.49 0.51 0.54 0.52 0.51 0.52 0.57
0.23 0.27 0.32 0.35 0.34 0.27 0.20 0.20 0.23 0.26 0.25 0.21 0.19 0.23 0.25 0.27 0.28 0.26 0.26 0.26 0.26 0.26 0.27 0.30 0.30 0.29 0.30 0.33 0.37 0.39 0.43 0.44 0.43 0.49 0.53 0.48 0.46 0.48 0.52 0.54 0.54 0.52 0.51 0.52
0.24 0.25 0.28 0.33 0.37 0.36 0.30 0.27 0.28 0.29 0.26 0.24 0.23 0.26 0.29 0.28 0.26 0.25 0.25 0.28 0.32 0.32 0.31 0.31 0.34 0.32 0.32 0.37 0.43 0.45 0.46 0.45 0.45 0.48 0.50 0.48 0.46 0.48 0.54 0.57 0.56 0.53 0.52 0.52
0.25 0.27 0.29 0.31 0.32 0.34 0.34 0.32 0.34 0.35 0.31 0.29 0.28 0.30 0.32 0.30 0.29 0.29 0.30 0.32 0.34 0.35 0.35 0.38 0.36 0.33 0.34 0.37 0.43 0.44 0.48 0.49 0.52 0.54 0.53 0.55 0.59 0.58 0.56 0.57 0.58 0.57 0.54 0.53
0.23 0.27 0.30 0.30 0.29 0.30 0.34 0.34 0.34 0.37 0.37 0.33 0.31 0.32 0.33 0.31 0.32 0.35 0.38 0.39 0.36 0.35 0.38 0.42 0.41 0.40 0.40 0.44 0.46 0.44 0.48 0.50 0.52 0.56 0.57 0.58 0.63 0.62 0.59 0.58 0.60 0.63 0.65 0.61
0.22 0.25 0.27 0.27 0.29 0.32 0.35 0.35 0.33 0.31 0.32 0.33 0.32 0.31 0.32 0.35 0.36 0.36 0.35 0.38 0.37 0.39 0.41 0.44 0.46 0.51 0.54 0.52 0.45 0.44 0.48 0.50 0.55 0.62 0.64 0.63 0.65 0.67 0.65 0.62 0.64 0.67 0.70 0.73
0.19 0.22 0.27 0.28 0.30 0.31 0.34 0.36 0.36 0.32 0.30 0.34 0.39 0.41 0.42 0.44 0.42 0.41 0.42 0.40 0.43 0.45 0.38 0.42 0.54 0.64 0.67 0.56 0.50 0.48 0.47 0.51 0.58 0.66 0.70 0.72 0.73 0.74 0.74 0.72 0.72 0.74 0.77 0.84
0.19 0.21 0.26 0.30 0.29 0.30 0.35 0.39 0.39 0.36 0.33 0.37 0.43 0.47 0.49 0.49 0.46 0.44 0.47 0.50 0.55 0.53 0.42 0.43 0.53 0.62 0.65 0.57 0.57 0.57 0.55 0.58 0.63 0.66 0.69 0.74 0.79 0.83 0.83 0.85 0.86 0.85 0.83 0.86
0.21 0.23 0.26 0.30 0.31 0.34 0.35 0.35 0.36 0.36 0.38 0.40 0.42 0.44 0.47 0.49 0.51 0.50 0.48 0.49 0.56 0.58 0.51 0.51 0.58 0.63 0.58 0.56 0.60 0.63 0.64 0.65 0.69 0.73 0.77 0.82 0.86 0.88 0.90 0.91 0.93 0.96 0.97 0.98
0.22 0.24 0.27 0.29 0.32 0.34 0.35 0.35 0.36 0.36 0.37 0.41 0.43 0.43 0.44 0.45 0.45 0.46 0.46 0.47 0.50 0.55 0.55 0.55 0.56 0.58 0.55 0.54 0.57 0.59 0.60 0.62 0.68 0.72 0.74 0.80 0.86 0.91 0.92 0.92 0.92 0.97 1.02 1.06
0.24 0.25 0.26 0.26 0.27 0.29 0.32 0.34 0.37 0.40 0.41 0.41 0.43 0.42 0.42 0.45 0.45 0.45 0.45 0.46 0.49 0.51 0.55 0.58 0.59 0.58 0.58 0.62 0.63 0.60 0.59 0.61 0.61 0.64 0.70 0.75 0.83 0.91 0.95 0.97 1.00 1.04 1.09 1.13